Time,TemperatureF,DewpointF,PressureIn,WindDirection,WindDirectionDegrees,WindSpeedMPH,WindSpeedGustMPH,Humidity,HourlyPrecipIn,Conditions,Clouds,dailyrainin,SoftwareType,DateUTC
2013-07-15 00:01:00,71.9,68.8,30.08,NW,310,0.0,0.0,90,0.00,,,0.00,WeatherCatV1.15B25,2013-07-15 05:01:00,
2013-07-15 00:06:00,71.7,68.6,30.08,NW,310,0.0,0.0,90,0.00,,,0.00,WeatherCatV1.15B25,2013-07-15 05:06:00,
2013-07-15 00:11:00,71.6,68.5,30.08,NW,310,0.0,0.0,90,0.00,,,0.00,WeatherCatV1.15B25,2013-07-15 05:11:00,
2013-07-15 00:16:00,71.5,68.4,30.08,NW,310,0.0,0.0,90,0.00,,,0.00,WeatherCatV1.15B25,2013-07-15 05:16:00,
2013-07-15 00:21:00,71.4,68.6,30.08,NW,310,0.0,0.0,91,0.00,,,0.00,WeatherCatV1.15B25,2013-07-15 05:21:00,
2013-07-15 00:26:00,71.3,68.5,30.07,NW,310,0.0,0.0,91,0.00,,,0.00,WeatherCatV1.15B25,2013-07-15 05:26:00,
2013-07-15 00:31:00,71.2,68.4,30.07,NW,310,0.0,0.0,91,0.00,,,0.00,WeatherCatV1.15B25,2013-07-15 05:31:00,
2013-07-15 00:36:00,71.1,68.3,30.07,NW,310,0.0,0.0,91,0.00,,,0.00,WeatherCatV1.15B25,2013-07-15 05:36:00,
2013-07-15 00:41:00,70.9,68.1,30.07,NW,310,0.0,0.0,91,0.00,,,0.00,WeatherCatV1.15B25,2013-07-15 05:41:00,
2013-07-15 00:46:00,70.8,68.0,30.07,NW,310,0.0,0.0,91,0.00,,,0.00,WeatherCatV1.15B25,2013-07-15 05:46:00,
2013-07-15 00:51:00,70.7,67.9,30.07,NW,310,0.0,0.0,91,0.00,,,0.00,WeatherCatV1.15B25,2013-07-15 05:51:00,
2013-07-15 00:56:00,70.7,67.9,30.07,NW,310,0.0,0.0,91,0.00,,,0.00,WeatherCatV1.15B25,2013-07-15 05:56:00,
2013-07-15 01:01:00,70.6,67.8,30.07,NW,310,0.0,0.0,91,0.00,,,0.00,WeatherCatV1.15B25,2013-07-15 06:01:00,
2013-07-15 01:06:00,70.5,67.7,30.07,NW,310,0.0,1.0,91,0.00,,,0.00,WeatherCatV1.15B25,2013-07-15 06:06:00,
2013-07-15 01:10:00,70.4,67.6,30.07,NW,310,0.0,0.0,91,0.00,,,0.00,WeatherCatV1.15B25,2013-07-15 06:10:00,
2013-07-15 01:15:00,70.2,67.4,30.07,NW,310,0.0,0.0,91,0.00,,,0.00,WeatherCatV1.15B25,2013-07-15 06:15:00,
2013-07-15 01:20:00,70.1,67.3,30.07,NW,310,0.0,0.0,91,0.00,,,0.00,WeatherCatV1.15B25,2013-07-15 06:20:00,
2013-07-15 01:25:00,69.9,67.5,30.08,NW,310,0.0,0.0,92,0.00,,,0.00,WeatherCatV1.15B25,2013-07-15 06:25:00,
2013-07-15 01:30:00,69.6,67.2,30.07,NW,310,0.0,0.0,92,0.00,,,0.00,WeatherCatV1.15B25,2013-07-15 06:30:00,
2013-07-15 01:35:00,69.3,67.2,30.08,NW,310,0.0,0.0,93,0.00,,,0.00,WeatherCatV1.15B25,2013-07-15 06:35:00,
2013-07-15 01:40:00,69.1,67.0,30.08,NW,310,0.0,0.0,93,0.00,,,0.00,WeatherCatV1.15B25,2013-07-15 06:40:00,
2013-07-15 01:45:00,68.8,67.0,30.08,NW,310,0.0,0.0,94,0.00,,,0.00,WeatherCatV1.15B25,2013-07-15 06:45:00,
2013-07-15 01:50:00,68.6,66.8,30.08,NW,310,0.0,0.0,94,0.00,,,0.00,WeatherCatV1.15B25,2013-07-15 06:50:00,
2013-07-15 01:55:00,68.4,66.6,30.08,NW,310,0.0,0.0,94,0.00,,,0.00,WeatherCatV1.15B25,2013-07-15 06:55:00,
2013-07-15 02:00:00,68.2,66.7,30.07,NW,310,0.0,0.0,95,0.00,,,0.00,WeatherCatV1.15B25,2013-07-15 07:00:00,
2013-07-15 02:05:00,68.0,66.5,30.08,NW,310,0.0,0.0,95,0.00,,,0.00,WeatherCatV1.15B25,2013-07-15 07:05:00,
2013-07-15 02:10:00,67.8,66.3,30.08,NW,310,0.0,0.0,95,0.00,,,0.00,WeatherCatV1.15B25,2013-07-15 07:10:00,
2013-07-15 02:15:00,67.7,66.2,30.08,NW,310,0.0,0.0,95,0.00,,,0.00,WeatherCatV1.15B25,2013-07-15 07:15:00,
2013-07-15 02:20:00,67.5,66.0,30.08,NW,310,0.0,0.0,95,0.00,,,0.00,WeatherCatV1.15B25,2013-07-15 07:20:00,
2013-07-15 02:25:00,67.4,65.9,30.08,NW,310,0.0,0.0,95,0.00,,,0.00,WeatherCatV1.15B25,2013-07-15 07:25:00,
2013-07-15 02:30:00,67.2,65.7,30.08,NW,310,0.0,0.0,95,0.00,,,0.00,WeatherCatV1.15B25,2013-07-15 07:30:00,
2013-07-15 02:35:00,67.1,65.9,30.08,NW,310,0.0,0.0,96,0.00,,,0.00,WeatherCatV1.15B25,2013-07-15 07:35:00,
2013-07-15 02:40:00,67.0,65.8,30.08,NW,310,0.0,0.0,96,0.00,,,0.00,WeatherCatV1.15B25,2013-07-15 07:40:00,
2013-07-15 02:45:00,66.9,65.7,30.08,NW,310,0.0,0.0,96,0.00,,,0.00,WeatherCatV1.15B25,2013-07-15 07:45:00,
2013-07-15 02:50:00,66.8,65.6,30.08,NW,310,0.0,0.0,96,0.00,,,0.00,WeatherCatV1.15B25,2013-07-15 07:50:00,
2013-07-15 02:55:00,66.7,65.5,30.08,NW,310,0.0,0.0,96,0.00,,,0.00,WeatherCatV1.15B25,2013-07-15 07:55:00,
2013-07-15 03:00:00,66.6,65.4,30.08,NW,310,0.0,0.0,96,0.00,,,0.00,WeatherCatV1.15B25,2013-07-15 08:00:00,
2013-07-15 03:05:00,66.5,65.6,30.08,NW,310,0.0,0.0,97,0.00,,,0.00,WeatherCatV1.15B25,2013-07-15 08:05:00,
2013-07-15 03:10:00,66.4,65.5,30.08,NW,310,0.0,0.0,97,0.00,,,0.00,WeatherCatV1.15B25,2013-07-15 08:10:00,
2013-07-15 03:15:00,66.3,65.4,30.08,NW,310,0.0,0.0,97,0.00,,,0.00,WeatherCatV1.15B25,2013-07-15 08:15:00,
2013-07-15 03:20:00,66.2,65.3,30.08,NW,310,0.0,0.0,97,0.00,,,0.00,WeatherCatV1.15B25,2013-07-15 08:20:00,
2013-07-15 03:25:00,66.1,65.2,30.08,NW,310,0.0,0.0,97,0.00,,,0.00,WeatherCatV1.15B25,2013-07-15 08:25:00,
2013-07-15 03:30:00,65.9,65.0,30.08,NW,310,0.0,0.0,97,0.00,,,0.00,WeatherCatV1.15B25,2013-07-15 08:30:00,
2013-07-15 03:35:00,65.8,64.9,30.08,NW,310,0.0,0.0,97,0.00,,,0.00,WeatherCatV1.15B25,2013-07-15 08:35:00,
2013-07-15 03:40:00,65.7,64.8,30.08,NW,310,0.0,0.0,97,0.00,,,0.00,WeatherCatV1.15B25,2013-07-15 08:40:00,
2013-07-15 03:45:00,65.6,64.7,30.08,NW,310,0.0,0.0,97,0.00,,,0.00,WeatherCatV1.15B25,2013-07-15 08:45:00,
2013-07-15 03:50:00,65.5,64.6,30.08,NW,310,0.0,0.0,97,0.00,,,0.00,WeatherCatV1.15B25,2013-07-15 08:50:00,
2013-07-15 03:55:00,65.4,64.5,30.08,NW,310,0.0,0.0,97,0.00,,,0.00,WeatherCatV1.15B25,2013-07-15 08:55:00,
2013-07-15 04:00:00,65.4,64.5,30.08,NW,310,0.0,0.0,97,0.00,,,0.00,WeatherCatV1.15B25,2013-07-15 09:00:00,
2013-07-15 04:05:00,65.3,64.4,30.08,NW,310,0.0,0.0,97,0.00,,,0.00,WeatherCatV1.15B25,2013-07-15 09:05:00,
2013-07-15 04:10:00,65.1,64.2,30.08,NW,310,0.0,0.0,97,0.00,,,0.00,WeatherCatV1.15B25,2013-07-15 09:10:00,
2013-07-15 04:15:00,65.0,64.1,30.09,NW,310,0.0,0.0,97,0.00,,,0.00,WeatherCatV1.15B25,2013-07-15 09:15:00,
2013-07-15 04:20:00,64.8,63.9,30.09,NW,310,0.0,0.0,97,0.00,,,0.00,WeatherCatV1.15B25,2013-07-15 09:20:00,
2013-07-15 04:25:00,64.7,63.8,30.09,NW,310,0.0,0.0,97,0.00,,,0.00,WeatherCatV1.15B25,2013-07-15 09:25:00,
2013-07-15 04:30:00,64.5,63.6,30.09,NW,310,0.0,0.0,97,0.00,,,0.00,WeatherCatV1.15B25,2013-07-15 09:30:00,
2013-07-15 04:35:00,64.4,63.5,30.09,NW,310,0.0,0.0,97,0.00,,,0.00,WeatherCatV1.15B25,2013-07-15 09:35:00,
2013-07-15 04:40:00,64.2,63.3,30.09,NW,310,0.0,0.0,97,0.00,,,0.00,WeatherCatV1.15B25,2013-07-15 09:40:00,
2013-07-15 04:45:00,64.0,63.1,30.09,NW,310,0.0,0.0,97,0.00,,,0.00,WeatherCatV1.15B25,2013-07-15 09:45:00,
2013-07-15 04:50:00,63.9,63.0,30.09,NW,310,0.0,0.0,97,0.00,,,0.00,WeatherCatV1.15B25,2013-07-15 09:50:00,
2013-07-15 04:55:00,63.8,62.9,30.09,NW,310,0.0,0.0,97,0.00,,,0.00,WeatherCatV1.15B25,2013-07-15 09:55:00,
2013-07-15 05:00:00,63.6,62.7,30.09,NW,310,0.0,0.0,97,0.00,,,0.00,WeatherCatV1.15B25,2013-07-15 10:00:00,
2013-07-15 05:05:00,63.5,62.6,30.09,NW,310,0.0,0.0,97,0.00,,,0.00,WeatherCatV1.15B25,2013-07-15 10:05:00,
2013-07-15 05:10:00,63.4,62.8,30.09,NW,310,0.0,0.0,98,0.00,,,0.00,WeatherCatV1.15B25,2013-07-15 10:10:00,
2013-07-15 05:15:00,63.3,62.7,30.09,NW,310,0.0,0.0,98,0.00,,,0.00,WeatherCatV1.15B25,2013-07-15 10:15:00,
2013-07-15 05:20:00,63.2,62.3,30.09,NW,310,0.0,0.0,97,0.00,,,0.00,WeatherCatV1.15B25,2013-07-15 10:20:00,
2013-07-15 05:25:00,63.1,62.2,30.09,NW,310,0.0,0.0,97,0.00,,,0.00,WeatherCatV1.15B25,2013-07-15 10:25:00,
2013-07-15 05:30:00,63.0,62.4,30.10,NW,310,0.0,0.0,98,0.00,,,0.00,WeatherCatV1.15B25,2013-07-15 10:30:00,
2013-07-15 05:35:00,63.0,62.4,30.10,NW,310,0.0,0.0,98,0.00,,,0.00,WeatherCatV1.15B25,2013-07-15 10:35:00,
2013-07-15 05:40:00,63.1,62.5,30.10,NW,310,0.0,0.0,98,0.00,,,0.00,WeatherCatV1.15B25,2013-07-15 10:40:00,
2013-07-15 05:45:00,63.0,62.4,30.10,NW,310,0.0,0.0,98,0.00,,,0.00,WeatherCatV1.15B25,2013-07-15 10:45:00,
2013-07-15 05:50:00,62.9,62.3,30.10,NW,310,0.0,0.0,98,0.00,,,0.00,WeatherCatV1.15B25,2013-07-15 10:50:00,
2013-07-15 05:55:00,62.7,62.1,30.10,NW,310,0.0,0.0,98,0.00,,,0.00,WeatherCatV1.15B25,2013-07-15 10:55:00,
2013-07-15 06:00:00,62.6,62.0,30.11,NW,310,0.0,0.0,98,0.00,,,0.00,WeatherCatV1.15B25,2013-07-15 11:00:00,
2013-07-15 06:05:00,62.5,61.9,30.11,NW,310,0.0,0.0,98,0.00,,,0.00,WeatherCatV1.15B25,2013-07-15 11:05:00,
2013-07-15 06:10:00,62.4,61.8,30.11,NW,310,0.0,0.0,98,0.00,,,0.00,WeatherCatV1.15B25,2013-07-15 11:10:00,
2013-07-15 06:15:00,62.4,61.8,30.11,NW,310,0.0,0.0,98,0.00,,,0.00,WeatherCatV1.15B25,2013-07-15 11:15:00,
2013-07-15 06:20:00,62.5,61.9,30.11,NW,310,0.0,0.0,98,0.00,,,0.00,WeatherCatV1.15B25,2013-07-15 11:20:00,
2013-07-15 06:25:00,62.4,61.8,30.11,NW,310,0.0,0.0,98,0.00,,,0.00,WeatherCatV1.15B25,2013-07-15 11:25:00,
2013-07-15 06:30:00,62.4,61.8,30.11,NW,310,0.0,0.0,98,0.00,,,0.00,WeatherCatV1.15B25,2013-07-15 11:30:00,
2013-07-15 06:35:00,62.4,61.8,30.11,NW,310,0.0,0.0,98,0.00,,,0.00,WeatherCatV1.15B25,2013-07-15 11:35:00,
2013-07-15 06:40:00,62.5,62.2,30.11,NW,310,0.0,0.0,99,0.00,,,0.00,WeatherCatV1.15B25,2013-07-15 11:40:00,
2013-07-15 06:45:00,62.6,62.3,30.11,NW,310,0.0,0.0,99,0.00,,,0.00,WeatherCatV1.15B25,2013-07-15 11:45:00,
2013-07-15 06:50:00,62.7,62.4,30.11,NW,310,0.0,0.0,99,0.00,,,0.00,WeatherCatV1.15B25,2013-07-15 11:50:00,
2013-07-15 06:55:00,62.8,62.5,30.11,NW,310,0.0,0.0,99,0.00,,,0.00,WeatherCatV1.15B25,2013-07-15 11:55:00,
2013-07-15 07:00:00,63.0,62.7,30.11,NW,310,0.0,0.0,99,0.00,,,0.00,WeatherCatV1.15B25,2013-07-15 12:00:00,
2013-07-15 07:05:00,63.2,62.9,30.11,NW,310,0.0,0.0,99,0.00,,,0.00,WeatherCatV1.15B25,2013-07-15 12:05:00,
2013-07-15 07:10:00,63.8,63.5,30.11,NW,310,0.0,1.0,99,0.00,,,0.00,WeatherCatV1.15B25,2013-07-15 12:10:00,
2013-07-15 07:15:00,64.3,64.0,30.11,NW,310,0.0,1.0,99,0.00,,,0.00,WeatherCatV1.15B25,2013-07-15 12:15:00,
2013-07-15 07:20:00,64.7,64.4,30.11,SE,139,4.0,4.0,99,0.00,,,0.00,WeatherCatV1.15B25,2013-07-15 12:20:00,
2013-07-15 07:25:00,65.0,64.7,30.11,SE,139,0.0,1.0,99,0.00,,,0.00,WeatherCatV1.15B25,2013-07-15 12:25:00,
2013-07-15 07:30:00,65.5,64.6,30.12,SE,139,0.0,2.0,97,0.00,,,0.00,WeatherCatV1.15B25,2013-07-15 12:30:00,
2013-07-15 07:35:00,65.9,64.7,30.12,SE,139,0.0,1.0,96,0.00,,,0.00,WeatherCatV1.15B25,2013-07-15 12:35:00,
2013-07-15 07:40:00,66.5,64.7,30.12,ESE,112,7.0,7.0,94,0.00,,,0.00,WeatherCatV1.15B25,2013-07-15 12:40:00,
2013-07-15 07:45:00,67.3,64.9,30.12,SE,124,0.0,2.0,92,0.00,,,0.00,WeatherCatV1.15B25,2013-07-15 12:45:00,
2013-07-15 07:50:00,68.2,65.1,30.12,SE,124,0.0,2.0,90,0.00,,,0.00,WeatherCatV1.15B25,2013-07-15 12:50:00,
2013-07-15 07:55:00,69.0,65.0,30.12,SE,124,0.0,3.0,87,0.00,,,0.00,WeatherCatV1.15B25,2013-07-15 12:55:00,
2013-07-15 08:00:00,69.7,64.6,30.12,SE,137,3.0,7.0,84,0.00,,,0.00,WeatherCatV1.15B25,2013-07-15 13:00:00,
2013-07-15 08:05:00,70.2,65.1,30.12,SE,137,2.0,4.0,84,0.00,,,0.00,WeatherCatV1.15B25,2013-07-15 13:05:00,
2013-07-15 08:10:00,70.5,65.1,30.12,ESE,116,0.0,1.0,83,0.00,,,0.00,WeatherCatV1.15B25,2013-07-15 13:10:00,
2013-07-15 08:15:00,70.9,65.5,30.12,SE,126,1.0,2.0,83,0.00,,,0.00,WeatherCatV1.15B25,2013-07-15 13:15:00,
2013-07-15 08:20:00,71.3,65.5,30.12,SE,124,0.0,0.0,82,0.00,,,0.00,WeatherCatV1.15B25,2013-07-15 13:20:00,
2013-07-15 08:25:00,71.7,65.5,30.12,ESE,117,2.0,4.0,81,0.00,,,0.00,WeatherCatV1.15B25,2013-07-15 13:25:00,
2013-07-15 08:30:00,72.1,66.3,30.13,ESE,117,0.0,2.0,82,0.00,,,0.00,WeatherCatV1.15B25,2013-07-15 13:30:00,
2013-07-15 08:35:00,72.4,65.9,30.13,ESE,122,4.0,5.0,80,0.00,,,0.00,WeatherCatV1.15B25,2013-07-15 13:35:00,
2013-07-15 08:40:00,72.7,65.8,30.13,ESE,119,1.0,3.0,79,0.00,,,0.00,WeatherCatV1.15B25,2013-07-15 13:40:00,
2013-07-15 08:45:00,73.0,65.7,30.13,ESE,120,2.0,5.0,78,0.00,,,0.00,WeatherCatV1.15B25,2013-07-15 13:45:00,
2013-07-15 08:50:00,73.3,66.0,30.13,ESE,120,3.0,3.0,78,0.00,,,0.00,WeatherCatV1.15B25,2013-07-15 13:50:00,
2013-07-15 08:55:00,73.7,66.4,30.13,ESE,120,3.0,3.0,78,0.00,,,0.00,WeatherCatV1.15B25,2013-07-15 13:55:00,
2013-07-15 09:00:00,74.0,66.3,30.13,ESE,118,4.0,4.0,77,0.00,,,0.00,WeatherCatV1.15B25,2013-07-15 14:00:00,
2013-07-15 09:05:00,74.4,66.7,30.13,SE,128,0.0,1.0,77,0.00,,,0.00,WeatherCatV1.15B25,2013-07-15 14:05:00,
2013-07-15 09:10:00,74.9,66.4,30.13,SE,135,3.0,5.0,75,0.00,,,0.00,WeatherCatV1.15B25,2013-07-15 14:10:00,
2013-07-15 09:15:00,75.2,66.7,30.13,SE,124,0.0,1.0,75,0.00,,,0.00,WeatherCatV1.15B25,2013-07-15 14:15:00,
2013-07-15 09:20:00,75.6,67.1,30.13,ESE,120,3.0,4.0,75,0.00,,,0.00,WeatherCatV1.15B25,2013-07-15 14:20:00,
2013-07-15 09:25:00,76.1,67.2,30.13,ESE,123,0.0,1.0,74,0.00,,,0.00,WeatherCatV1.15B25,2013-07-15 14:25:00,
2013-07-15 09:30:00,76.7,67.8,30.13,SE,140,1.0,1.0,74,0.00,,,0.00,WeatherCatV1.15B25,2013-07-15 14:30:00,
2013-07-15 09:35:00,77.1,67.0,30.13,SE,126,3.0,3.0,71,0.00,,,0.00,WeatherCatV1.15B25,2013-07-15 14:35:00,
2013-07-15 09:40:00,77.3,66.7,30.13,ESE,117,0.0,3.0,70,0.00,,,0.00,WeatherCatV1.15B25,2013-07-15 14:40:00,
2013-07-15 09:45:00,77.6,66.6,30.13,SSE,147,0.0,4.0,69,0.00,,,0.00,WeatherCatV1.15B25,2013-07-15 14:45:00,
2013-07-15 09:50:00,77.8,66.4,30.13,South,189,0.0,3.0,68,0.00,,,0.00,WeatherCatV1.15B25,2013-07-15 14:50:00,
2013-07-15 09:55:00,78.2,66.3,30.13,SE,137,4.0,7.0,67,0.00,,,0.00,WeatherCatV1.15B25,2013-07-15 14:55:00,
2013-07-15 10:00:00,78.5,65.7,30.13,SE,133,1.0,7.0,65,0.00,,,0.00,WeatherCatV1.15B25,2013-07-15 15:00:00,
2013-07-15 10:05:00,78.7,66.8,30.13,ESE,116,0.0,2.0,67,0.00,,,0.00,WeatherCatV1.15B25,2013-07-15 15:05:00,
2013-07-15 10:10:00,79.0,66.2,30.13,ESE,120,1.0,5.0,65,0.00,,,0.00,WeatherCatV1.15B25,2013-07-15 15:10:00,
2013-07-15 10:15:00,79.3,66.5,30.13,SE,145,2.0,8.0,65,0.00,,,0.00,WeatherCatV1.15B25,2013-07-15 15:15:00,
2013-07-15 10:20:00,79.6,67.2,30.12,ESE,118,2.0,3.0,66,0.00,,,0.00,WeatherCatV1.15B25,2013-07-15 15:20:00,
2013-07-15 10:25:00,79.9,67.1,30.12,ESE,122,2.0,3.0,65,0.00,,,0.00,WeatherCatV1.15B25,2013-07-15 15:25:00,
2013-07-15 10:26:00,79.9,66.6,30.12,ESE,118,1.0,5.0,64,0.00,,,0.00,WeatherCatV1.15B25,2013-07-15 15:26:00,
2013-07-15 10:31:00,80.0,66.2,30.13,SE,128,0.0,3.0,63,0.00,,,0.00,WeatherCatV1.15B25,2013-07-15 15:31:00,
2013-07-15 10:36:00,80.3,66.5,30.12,South,178,1.0,2.0,63,0.00,,,0.00,WeatherCatV1.15B25,2013-07-15 15:36:00,
2013-07-15 10:41:00,80.7,66.4,30.12,SSE,166,2.0,5.0,62,0.00,,,0.00,WeatherCatV1.15B25,2013-07-15 15:41:00,
2013-07-15 10:46:00,81.1,64.9,30.12,ESE,119,1.0,7.0,58,0.00,,,0.00,WeatherCatV1.15B25,2013-07-15 15:46:00,
2013-07-15 10:51:00,81.3,66.1,30.12,SSE,161,3.0,5.0,60,0.00,,,0.00,WeatherCatV1.15B25,2013-07-15 15:51:00,
2013-07-15 10:56:00,81.6,66.3,30.12,SSE,150,0.0,3.0,60,0.00,,,0.00,WeatherCatV1.15B25,2013-07-15 15:56:00,
2013-07-15 11:01:00,82.2,66.4,30.12,SE,137,1.0,4.0,59,0.00,,,0.00,WeatherCatV1.15B25,2013-07-15 16:01:00,
2013-07-15 11:06:00,82.6,66.3,30.12,SSE,151,0.0,3.0,58,0.00,,,0.00,WeatherCatV1.15B25,2013-07-15 16:06:00,
2013-07-15 11:11:00,82.7,65.9,30.12,SSE,163,2.0,6.0,57,0.00,,,0.00,WeatherCatV1.15B25,2013-07-15 16:11:00,
2013-07-15 11:16:00,82.9,65.6,30.12,SSE,153,5.0,5.0,56,0.00,,,0.00,WeatherCatV1.15B25,2013-07-15 16:16:00,
2013-07-15 11:21:00,83.0,65.7,30.12,SW,226,0.0,1.0,56,0.00,,,0.00,WeatherCatV1.15B25,2013-07-15 16:21:00,
2013-07-15 11:26:00,83.3,65.4,30.12,SSW,206,2.0,4.0,55,0.00,,,0.00,WeatherCatV1.15B25,2013-07-15 16:26:00,
2013-07-15 11:31:00,83.6,65.7,30.12,South,184,0.0,6.0,55,0.00,,,0.00,WeatherCatV1.15B25,2013-07-15 16:31:00,
2013-07-15 11:36:00,83.8,65.9,30.12,South,189,2.0,3.0,55,0.00,,,0.00,WeatherCatV1.15B25,2013-07-15 16:36:00,
2013-07-15 11:41:00,83.6,65.2,30.12,SE,131,5.0,5.0,54,0.00,,,0.00,WeatherCatV1.15B25,2013-07-15 16:41:00,
2013-07-15 11:46:00,83.4,65.5,30.12,SSE,147,2.0,4.0,55,0.00,,,0.00,WeatherCatV1.15B25,2013-07-15 16:46:00,
2013-07-15 11:51:00,83.1,64.2,30.12,South,190,0.0,4.0,53,0.00,,,0.00,WeatherCatV1.15B25,2013-07-15 16:51:00,
2013-07-15 11:56:00,83.2,65.3,30.12,SSE,163,1.0,9.0,55,0.00,,,0.00,WeatherCatV1.15B25,2013-07-15 16:56:00,
2013-07-15 12:01:00,83.5,65.1,30.12,ESE,111,0.0,2.0,54,0.00,,,0.00,WeatherCatV1.15B25,2013-07-15 17:01:00,
2013-07-15 12:06:00,84.1,64.5,30.12,SSE,152,2.0,3.0,52,0.00,,,0.00,WeatherCatV1.15B25,2013-07-15 17:06:00,
2013-07-15 12:11:00,84.2,65.2,30.12,SW,229,0.0,4.0,53,0.00,,,0.00,WeatherCatV1.15B25,2013-07-15 17:11:00,
2013-07-15 12:16:00,84.2,65.7,30.11,ESE,122,3.0,4.0,54,0.00,,,0.00,WeatherCatV1.15B25,2013-07-15 17:16:00,
2013-07-15 12:21:00,84.6,66.6,30.11,SE,139,0.0,5.0,55,0.00,,,0.00,WeatherCatV1.15B25,2013-07-15 17:21:00,
2013-07-15 12:26:00,84.7,66.7,30.12,ESE,118,0.0,2.0,55,0.00,,,0.00,WeatherCatV1.15B25,2013-07-15 17:26:00,
2013-07-15 12:31:00,84.9,65.3,30.12,South,184,1.0,6.0,52,0.00,,,0.00,WeatherCatV1.15B25,2013-07-15 17:31:00,
2013-07-15 12:36:00,84.7,66.2,30.12,ESE,103,3.0,6.0,54,0.00,,,0.00,WeatherCatV1.15B25,2013-07-15 17:36:00,
2013-07-15 12:41:00,84.3,65.3,30.11,ESE,118,2.0,8.0,53,0.00,,,0.00,WeatherCatV1.15B25,2013-07-15 17:41:00,
2013-07-15 12:46:00,84.4,64.8,30.11,SE,138,4.0,5.0,52,0.00,,,0.00,WeatherCatV1.15B25,2013-07-15 17:46:00,
2013-07-15 12:51:00,84.3,65.8,30.11,ESE,115,2.0,7.0,54,0.00,,,0.00,WeatherCatV1.15B25,2013-07-15 17:51:00,
2013-07-15 12:56:00,84.1,65.6,30.11,ESE,117,4.0,5.0,54,0.00,,,0.00,WeatherCatV1.15B25,2013-07-15 17:56:00,
2013-07-15 13:01:00,84.7,66.2,30.11,East,98,0.0,4.0,54,0.00,,,0.00,WeatherCatV1.15B25,2013-07-15 18:01:00,
2013-07-15 13:06:00,84.4,65.4,30.11,SE,128,2.0,13.0,53,0.00,,,0.00,WeatherCatV1.15B25,2013-07-15 18:06:00,
2013-07-15 13:11:00,84.2,66.2,30.11,SSE,161,2.0,10.0,55,0.00,,,0.00,WeatherCatV1.15B25,2013-07-15 18:11:00,
2013-07-15 13:16:00,84.0,66.6,30.11,SE,126,4.0,8.0,56,0.00,,,0.00,WeatherCatV1.15B25,2013-07-15 18:16:00,
2013-07-15 13:21:00,83.7,65.8,30.10,SSE,150,7.0,10.0,55,0.00,,,0.00,WeatherCatV1.15B25,2013-07-15 18:21:00,
2013-07-15 13:26:00,84.4,65.4,30.10,ESE,120,7.0,9.0,53,0.00,,,0.00,WeatherCatV1.15B25,2013-07-15 18:26:00,
2013-07-15 13:31:00,84.8,66.8,30.10,SE,132,3.0,5.0,55,0.00,,,0.00,WeatherCatV1.15B25,2013-07-15 18:31:00,
2013-07-15 13:36:00,85.3,65.6,30.10,SSE,151,1.0,7.0,52,0.00,,,0.00,WeatherCatV1.15B25,2013-07-15 18:36:00,
2013-07-15 13:41:00,85.5,65.3,30.10,SE,130,9.0,9.0,51,0.00,,,0.00,WeatherCatV1.15B25,2013-07-15 18:41:00,
2013-07-15 13:46:00,85.5,65.3,30.10,SE,138,1.0,5.0,51,0.00,,,0.00,WeatherCatV1.15B25,2013-07-15 18:46:00,
2013-07-15 13:51:00,85.4,64.0,30.10,South,190,2.0,10.0,49,0.00,,,0.00,WeatherCatV1.15B25,2013-07-15 18:51:00,
2013-07-15 13:56:00,85.6,64.2,30.10,ESE,120,5.0,8.0,49,0.00,,,0.00,WeatherCatV1.15B25,2013-07-15 18:56:00,
2013-07-15 14:01:00,85.4,64.6,30.09,ESE,120,0.0,4.0,50,0.00,,,0.00,WeatherCatV1.15B25,2013-07-15 19:01:00,
2013-07-15 14:06:00,85.4,66.8,30.09,SE,131,3.0,4.0,54,0.00,,,0.00,WeatherCatV1.15B25,2013-07-15 19:06:00,
2013-07-15 14:11:00,85.4,65.2,30.10,SE,124,5.0,11.0,51,0.00,,,0.00,WeatherCatV1.15B25,2013-07-15 19:11:00,
2013-07-15 14:16:00,85.1,65.5,30.10,ESE,116,1.0,9.0,52,0.00,,,0.00,WeatherCatV1.15B25,2013-07-15 19:16:00,
2013-07-15 14:21:00,84.7,65.1,30.10,East,101,3.0,10.0,52,0.00,,,0.00,WeatherCatV1.15B25,2013-07-15 19:21:00,
2013-07-15 14:26:00,84.0,65.0,30.09,ESE,116,5.0,7.0,53,0.00,,,0.00,WeatherCatV1.15B25,2013-07-15 19:26:00,
2013-07-15 14:31:00,84.4,64.8,30.09,SE,140,5.0,7.0,52,0.00,,,0.00,WeatherCatV1.15B25,2013-07-15 19:31:00,
2013-07-15 14:36:00,84.7,66.2,30.09,ESE,116,4.0,7.0,54,0.00,,,0.00,WeatherCatV1.15B25,2013-07-15 19:36:00,
2013-07-15 14:41:00,85.0,65.4,30.09,ESE,113,3.0,5.0,52,0.00,,,0.00,WeatherCatV1.15B25,2013-07-15 19:41:00,
2013-07-15 14:46:00,85.3,65.1,30.09,ESE,120,2.0,9.0,51,0.00,,,0.00,WeatherCatV1.15B25,2013-07-15 19:46:00,
2013-07-15 14:51:00,85.6,65.9,30.09,ESE,116,2.0,5.0,52,0.00,,,0.00,WeatherCatV1.15B25,2013-07-15 19:51:00,
2013-07-15 14:56:00,85.6,64.2,30.09,SE,133,1.0,9.0,49,0.00,,,0.00,WeatherCatV1.15B25,2013-07-15 19:56:00,
2013-07-15 15:01:00,85.7,64.3,30.09,ESE,114,7.0,9.0,49,0.00,,,0.00,WeatherCatV1.15B25,2013-07-15 20:01:00,
2013-07-15 15:06:00,85.8,64.4,30.08,SE,124,2.0,10.0,49,0.00,,,0.00,WeatherCatV1.15B25,2013-07-15 20:06:00,
2013-07-15 15:11:00,85.2,63.8,30.08,SE,131,4.0,10.0,49,0.00,,,0.00,WeatherCatV1.15B25,2013-07-15 20:11:00,
2013-07-15 15:16:00,85.3,63.3,30.08,ESE,115,7.0,11.0,48,0.00,,,0.00,WeatherCatV1.15B25,2013-07-15 20:16:00,
2013-07-15 15:21:00,85.6,63.6,30.08,SE,133,1.0,10.0,48,0.00,,,0.00,WeatherCatV1.15B25,2013-07-15 20:21:00,
2013-07-15 15:26:00,85.7,65.5,30.08,SE,126,9.0,9.0,51,0.00,,,0.00,WeatherCatV1.15B25,2013-07-15 20:26:00,
2013-07-15 15:31:00,85.7,64.3,30.07,SE,141,3.0,5.0,49,0.00,,,0.00,WeatherCatV1.15B25,2013-07-15 20:31:00,
2013-07-15 15:36:00,86.0,64.6,30.08,SE,133,2.0,5.0,49,0.00,,,0.00,WeatherCatV1.15B25,2013-07-15 20:36:00,
2013-07-15 15:41:00,86.2,64.2,30.07,SSW,205,1.0,5.0,48,0.00,,,0.00,WeatherCatV1.15B25,2013-07-15 20:41:00,
2013-07-15 15:46:00,86.2,64.2,30.07,South,181,1.0,4.0,48,0.00,,,0.00,WeatherCatV1.15B25,2013-07-15 20:46:00,
2013-07-15 15:51:00,86.4,64.4,30.07,ESE,118,4.0,7.0,48,0.00,,,0.00,WeatherCatV1.15B25,2013-07-15 20:51:00,
2013-07-15 15:56:00,86.3,63.7,30.07,SE,129,3.0,5.0,47,0.00,,,0.00,WeatherCatV1.15B25,2013-07-15 20:56:00,
2013-07-15 16:01:00,86.3,64.9,30.07,SSE,149,4.0,9.0,49,0.00,,,0.00,WeatherCatV1.15B25,2013-07-15 21:01:00,
2013-07-15 16:06:00,86.4,64.4,30.07,SE,128,1.0,8.0,48,0.00,,,0.00,WeatherCatV1.15B25,2013-07-15 21:06:00,
2013-07-15 16:11:00,86.6,65.7,30.07,ESE,117,2.0,6.0,50,0.00,,,0.00,WeatherCatV1.15B25,2013-07-15 21:11:00,
2013-07-15 16:16:00,86.1,64.1,30.07,ESE,120,8.0,8.0,48,0.00,,,0.00,WeatherCatV1.15B25,2013-07-15 21:16:00,
2013-07-15 16:21:00,85.8,64.4,30.07,ESE,120,2.0,7.0,49,0.00,,,0.00,WeatherCatV1.15B25,2013-07-15 21:21:00,
2013-07-15 16:26:00,86.1,64.7,30.07,ESE,115,5.0,9.0,49,0.00,,,0.00,WeatherCatV1.15B25,2013-07-15 21:26:00,
2013-07-15 16:31:00,86.2,64.8,30.06,South,170,2.0,9.0,49,0.00,,,0.00,WeatherCatV1.15B25,2013-07-15 21:31:00,
2013-07-15 16:36:00,86.0,65.2,30.06,East,100,1.0,7.0,50,0.00,,,0.00,WeatherCatV1.15B25,2013-07-15 21:36:00,
2013-07-15 16:41:00,86.3,66.6,30.06,SE,141,2.0,5.0,52,0.00,,,0.00,WeatherCatV1.15B25,2013-07-15 21:41:00,
2013-07-15 16:46:00,86.3,65.4,30.06,ESE,117,2.0,13.0,50,0.00,,,0.00,WeatherCatV1.15B25,2013-07-15 21:46:00,
2013-07-15 16:51:00,86.3,67.1,30.06,SE,140,2.0,5.0,53,0.00,,,0.00,WeatherCatV1.15B25,2013-07-15 21:51:00,
2013-07-15 16:56:00,86.4,65.5,30.06,South,177,0.0,5.0,50,0.00,,,0.00,WeatherCatV1.15B25,2013-07-15 21:56:00,
2013-07-15 17:01:00,86.4,65.5,30.06,ESE,113,7.0,7.0,50,0.00,,,0.00,WeatherCatV1.15B25,2013-07-15 22:01:00,
2013-07-15 17:06:00,86.0,65.7,30.06,South,173,2.0,8.0,51,0.00,,,0.00,WeatherCatV1.15B25,2013-07-15 22:06:00,
2013-07-15 17:11:00,86.2,65.9,30.05,SE,129,2.0,9.0,51,0.00,,,0.00,WeatherCatV1.15B25,2013-07-15 22:11:00,
2013-07-15 17:16:00,86.0,66.3,30.05,SSE,147,2.0,4.0,52,0.00,,,0.00,WeatherCatV1.15B25,2013-07-15 22:16:00,
2013-07-15 17:21:00,86.0,66.3,30.05,ESE,110,9.0,9.0,52,0.00,,,0.00,WeatherCatV1.15B25,2013-07-15 22:21:00,
2013-07-15 17:26:00,85.9,66.2,30.05,ESE,118,1.0,6.0,52,0.00,,,0.00,WeatherCatV1.15B25,2013-07-15 22:26:00,
2013-07-15 17:31:00,85.9,66.2,30.05,ESE,113,1.0,7.0,52,0.00,,,0.00,WeatherCatV1.15B25,2013-07-15 22:31:00,
2013-07-15 17:36:00,85.9,65.6,30.04,SSE,154,3.0,4.0,51,0.00,,,0.00,WeatherCatV1.15B25,2013-07-15 22:36:00,
2013-07-15 17:41:00,86.0,66.8,30.05,SE,126,1.0,3.0,53,0.00,,,0.00,WeatherCatV1.15B25,2013-07-15 22:41:00,
2013-07-15 17:46:00,86.0,66.3,30.04,SSE,147,3.0,7.0,52,0.00,,,0.00,WeatherCatV1.15B25,2013-07-15 22:46:00,
2013-07-15 17:51:00,86.0,66.8,30.04,ESE,115,0.0,2.0,53,0.00,,,0.00,WeatherCatV1.15B25,2013-07-15 22:51:00,
2013-07-15 17:56:00,85.8,66.7,30.04,ESE,111,3.0,5.0,53,0.00,,,0.00,WeatherCatV1.15B25,2013-07-15 22:56:00,
2013-07-15 18:01:00,85.6,65.9,30.04,SE,126,3.0,9.0,52,0.00,,,0.00,WeatherCatV1.15B25,2013-07-15 23:01:00,
2013-07-15 18:06:00,85.6,65.9,30.04,ESE,114,2.0,4.0,52,0.00,,,0.00,WeatherCatV1.15B25,2013-07-15 23:06:00,
2013-07-15 18:11:00,85.6,67.0,30.03,SE,141,1.0,3.0,54,0.00,,,0.00,WeatherCatV1.15B25,2013-07-15 23:11:00,
2013-07-15 18:16:00,85.5,66.4,30.03,ESE,108,4.0,7.0,53,0.00,,,0.00,WeatherCatV1.15B25,2013-07-15 23:16:00,
2013-07-15 18:21:00,85.2,66.6,30.03,SE,131,0.0,6.0,54,0.00,,,0.00,WeatherCatV1.15B25,2013-07-15 23:21:00,
2013-07-15 18:26:00,85.1,66.0,30.03,SE,125,1.0,9.0,53,0.00,,,0.00,WeatherCatV1.15B25,2013-07-15 23:26:00,
2013-07-15 18:31:00,85.0,66.5,30.03,SE,128,4.0,4.0,54,0.00,,,0.00,WeatherCatV1.15B25,2013-07-15 23:31:00,
2013-07-15 18:36:00,84.8,66.3,30.03,SE,128,3.0,9.0,54,0.00,,,0.00,WeatherCatV1.15B25,2013-07-15 23:36:00,
2013-07-15 18:41:00,84.7,66.7,30.03,ESE,118,4.0,4.0,55,0.00,,,0.00,WeatherCatV1.15B25,2013-07-15 23:41:00,
2013-07-15 18:46:00,84.6,66.6,30.03,ESE,106,2.0,6.0,55,0.00,,,0.00,WeatherCatV1.15B25,2013-07-15 23:46:00,
2013-07-15 18:51:00,84.6,67.1,30.03,SE,126,1.0,3.0,56,0.00,,,0.00,WeatherCatV1.15B25,2013-07-15 23:51:00,
2013-07-15 18:56:00,84.5,67.0,30.03,ESE,120,1.0,5.0,56,0.00,,,0.00,WeatherCatV1.15B25,2013-07-15 23:56:00,
2013-07-15 19:01:00,84.4,67.0,30.02,SE,134,0.0,1.0,56,0.00,,,0.00,WeatherCatV1.15B25,2013-07-16 00:01:00,
2013-07-15 19:06:00,84.4,67.0,30.02,SSE,160,0.0,4.0,56,0.00,,,0.00,WeatherCatV1.15B25,2013-07-16 00:06:00,
2013-07-15 19:11:00,84.3,66.3,30.02,ESE,116,1.0,3.0,55,0.00,,,0.00,WeatherCatV1.15B25,2013-07-16 00:11:00,
2013-07-15 19:16:00,84.3,66.3,30.02,SE,132,1.0,3.0,55,0.00,,,0.00,WeatherCatV1.15B25,2013-07-16 00:16:00,
2013-07-15 19:21:00,84.3,66.9,30.02,South,177,0.0,3.0,56,0.00,,,0.00,WeatherCatV1.15B25,2013-07-16 00:21:00,
2013-07-15 19:26:00,84.3,67.4,30.02,SE,136,0.0,4.0,57,0.00,,,0.00,WeatherCatV1.15B25,2013-07-16 00:26:00,
2013-07-15 19:31:00,84.3,67.4,30.03,SE,135,2.0,5.0,57,0.00,,,0.00,WeatherCatV1.15B25,2013-07-16 00:31:00,
2013-07-15 19:36:00,84.2,67.3,30.02,ESE,113,1.0,3.0,57,0.00,,,0.00,WeatherCatV1.15B25,2013-07-16 00:36:00,
2013-07-15 19:41:00,84.1,67.7,30.03,ESE,116,0.0,5.0,58,0.00,,,0.00,WeatherCatV1.15B25,2013-07-16 00:41:00,
2013-07-15 19:46:00,83.9,67.5,30.03,SE,129,1.0,4.0,58,0.00,,,0.00,WeatherCatV1.15B25,2013-07-16 00:46:00,
2013-07-15 19:50:00,83.8,67.9,30.03,SE,138,0.0,3.0,59,0.00,,,0.00,WeatherCatV1.15B25,2013-07-16 00:50:00,
2013-07-15 19:56:00,83.5,68.1,30.03,SE,129,1.0,3.0,60,0.00,,,0.00,WeatherCatV1.15B25,2013-07-16 00:56:00,
2013-07-15 20:01:00,83.2,68.3,30.03,SE,129,2.0,2.0,61,0.00,,,0.00,WeatherCatV1.15B25,2013-07-16 01:01:00,
2013-07-15 20:06:00,82.9,68.5,30.03,SE,126,0.0,4.0,62,0.00,,,0.00,WeatherCatV1.15B25,2013-07-16 01:06:00,
2013-07-15 20:11:00,82.7,68.8,30.03,ESE,122,0.0,0.0,63,0.00,,,0.00,WeatherCatV1.15B25,2013-07-16 01:11:00,
2013-07-15 20:16:00,82.5,68.6,30.03,ESE,123,0.0,3.0,63,0.00,,,0.00,WeatherCatV1.15B25,2013-07-16 01:16:00,
2013-07-15 20:21:00,82.3,68.4,30.03,SE,133,2.0,6.0,63,0.00,,,0.00,WeatherCatV1.15B25,2013-07-16 01:21:00,
2013-07-15 20:26:00,82.1,68.7,30.03,SE,127,0.0,4.0,64,0.00,,,0.00,WeatherCatV1.15B25,2013-07-16 01:26:00,
2013-07-15 20:31:00,81.9,68.5,30.03,SSE,150,2.0,5.0,64,0.00,,,0.00,WeatherCatV1.15B25,2013-07-16 01:31:00,
2013-07-15 20:36:00,81.8,68.4,30.03,SE,125,1.0,2.0,64,0.00,,,0.00,WeatherCatV1.15B25,2013-07-16 01:36:00,
2013-07-15 20:41:00,81.6,68.7,30.03,SE,126,0.0,0.0,65,0.00,,,0.00,WeatherCatV1.15B25,2013-07-16 01:41:00,
2013-07-15 20:46:00,81.3,67.9,30.03,SE,131,2.0,4.0,64,0.00,,,0.00,WeatherCatV1.15B25,2013-07-16 01:46:00,
2013-07-15 20:51:00,81.2,68.3,30.03,SE,124,1.0,2.0,65,0.00,,,0.00,WeatherCatV1.15B25,2013-07-16 01:51:00,
2013-07-15 20:56:00,80.9,68.0,30.03,SE,124,0.0,4.0,65,0.00,,,0.00,WeatherCatV1.15B25,2013-07-16 01:56:00,
2013-07-15 21:01:00,80.7,68.3,30.03,SE,124,4.0,4.0,66,0.00,,,0.00,WeatherCatV1.15B25,2013-07-16 02:01:00,
2013-07-15 21:06:00,80.5,68.1,30.03,ESE,120,1.0,4.0,66,0.00,,,0.00,WeatherCatV1.15B25,2013-07-16 02:06:00,
2013-07-15 21:11:00,80.3,67.9,30.03,ESE,120,1.0,2.0,66,0.00,,,0.00,WeatherCatV1.15B25,2013-07-16 02:11:00,
2013-07-15 21:16:00,80.1,68.1,30.03,SE,145,0.0,4.0,67,0.00,,,0.00,WeatherCatV1.15B25,2013-07-16 02:16:00,
2013-07-15 21:21:00,80.0,68.0,30.03,ESE,120,0.0,3.0,67,0.00,,,0.00,WeatherCatV1.15B25,2013-07-16 02:21:00,
2013-07-15 21:26:00,79.9,67.9,30.04,ESE,120,0.0,4.0,67,0.00,,,0.00,WeatherCatV1.15B25,2013-07-16 02:26:00,
2013-07-15 21:31:00,79.7,68.2,30.03,ESE,120,0.0,3.0,68,0.00,,,0.00,WeatherCatV1.15B25,2013-07-16 02:31:00,
2013-07-15 21:36:00,79.5,68.0,30.04,ESE,120,0.0,1.0,68,0.00,,,0.00,WeatherCatV1.15B25,2013-07-16 02:36:00,
2013-07-15 21:41:00,79.4,67.9,30.04,ESE,120,0.0,1.0,68,0.00,,,0.00,WeatherCatV1.15B25,2013-07-16 02:41:00,
2013-07-15 21:46:00,79.1,68.0,30.04,ESE,120,1.0,1.0,69,0.00,,,0.00,WeatherCatV1.15B25,2013-07-16 02:46:00,
2013-07-15 21:51:00,79.0,67.9,30.04,ESE,120,1.0,3.0,69,0.00,,,0.00,WeatherCatV1.15B25,2013-07-16 02:51:00,
2013-07-15 21:56:00,79.0,68.4,30.04,ESE,120,0.0,2.0,70,0.00,,,0.00,WeatherCatV1.15B25,2013-07-16 02:56:00,
2013-07-15 22:01:00,78.9,68.3,30.04,ESE,120,0.0,0.0,70,0.00,,,0.00,WeatherCatV1.15B25,2013-07-16 03:01:00,
2013-07-15 22:06:00,78.7,68.1,30.04,ESE,120,0.0,2.0,70,0.00,,,0.00,WeatherCatV1.15B25,2013-07-16 03:06:00,
2013-07-15 22:11:00,78.5,68.3,30.04,ESE,120,2.0,3.0,71,0.00,,,0.00,WeatherCatV1.15B25,2013-07-16 03:11:00,
2013-07-15 22:16:00,78.3,68.1,30.04,ESE,120,0.0,1.0,71,0.00,,,0.00,WeatherCatV1.15B25,2013-07-16 03:16:00,
2013-07-15 22:21:00,78.1,67.9,30.05,ESE,120,1.0,1.0,71,0.00,,,0.00,WeatherCatV1.15B25,2013-07-16 03:21:00,
2013-07-15 22:26:00,77.9,68.1,30.05,ESE,120,0.0,1.0,72,0.00,,,0.00,WeatherCatV1.15B25,2013-07-16 03:26:00,
2013-07-15 22:31:00,77.9,68.5,30.05,ESE,120,0.0,1.0,73,0.00,,,0.00,WeatherCatV1.15B25,2013-07-16 03:31:00,
2013-07-15 22:36:00,77.8,68.4,30.05,ESE,120,0.0,1.0,73,0.00,,,0.00,WeatherCatV1.15B25,2013-07-16 03:36:00,
2013-07-15 22:41:00,77.7,68.3,30.05,ESE,120,0.0,2.0,73,0.00,,,0.00,WeatherCatV1.15B25,2013-07-16 03:41:00,
2013-07-15 22:46:00,77.6,68.6,30.05,ESE,120,0.0,0.0,74,0.00,,,0.00,WeatherCatV1.15B25,2013-07-16 03:46:00,
2013-07-15 22:51:00,77.6,68.6,30.05,ESE,120,0.0,1.0,74,0.00,,,0.00,WeatherCatV1.15B25,2013-07-16 03:51:00,
2013-07-15 22:56:00,77.5,68.5,30.05,ESE,120,0.0,1.0,74,0.00,,,0.00,WeatherCatV1.15B25,2013-07-16 03:56:00,
2013-07-15 23:01:00,77.3,68.3,30.05,ESE,120,0.0,1.0,74,0.00,,,0.00,WeatherCatV1.15B25,2013-07-16 04:01:00,
2013-07-15 23:06:00,77.2,68.6,30.05,ESE,120,0.0,2.0,75,0.00,,,0.00,WeatherCatV1.15B25,2013-07-16 04:06:00,
2013-07-15 23:11:00,77.1,68.5,30.04,ESE,120,0.0,1.0,75,0.00,,,0.00,WeatherCatV1.15B25,2013-07-16 04:11:00,
2013-07-15 23:16:00,77.0,68.8,30.05,ESE,120,0.0,0.0,76,0.00,,,0.00,WeatherCatV1.15B25,2013-07-16 04:16:00,
2013-07-15 23:21:00,76.8,68.6,30.05,ESE,120,0.0,0.0,76,0.00,,,0.00,WeatherCatV1.15B25,2013-07-16 04:21:00,
2013-07-15 23:26:00,76.6,68.8,30.05,ESE,120,0.0,0.0,77,0.00,,,0.00,WeatherCatV1.15B25,2013-07-16 04:26:00,
2013-07-15 23:31:00,76.5,68.7,30.05,ESE,120,0.0,1.0,77,0.00,,,0.00,WeatherCatV1.15B25,2013-07-16 04:31:00,
2013-07-15 23:36:00,76.5,69.1,30.05,ESE,120,1.0,4.0,78,0.00,,,0.00,WeatherCatV1.15B25,2013-07-16 04:36:00,
2013-07-15 23:41:00,76.5,69.1,30.05,ESE,120,0.0,1.0,78,0.00,,,0.00,WeatherCatV1.15B25,2013-07-16 04:41:00,
2013-07-15 23:46:00,76.4,69.0,30.05,ESE,120,0.0,0.0,78,0.00,,,0.00,WeatherCatV1.15B25,2013-07-16 04:46:00,
2013-07-15 23:51:00,76.4,69.0,30.05,ESE,120,0.0,0.0,78,0.00,,,0.00,WeatherCatV1.15B25,2013-07-16 04:51:00,
2013-07-15 23:56:00,76.4,69.0,30.05,ESE,120,0.0,0.0,78,0.00,,,0.00,WeatherCatV1.15B25,2013-07-16 04:56:00,